Location: Aranbee
(34.0885°N, 118.2342°W)
Time: 12:24:02
(UTC+00:00)

Tiros 1 - Pass Details

Date: 01 December 2020
Orbit: 630 x 663 km, 48.4° (Epoch: 21 January)

Event Time Altitude Azimuth Distance (km) Brightness Sun altitude
Rises 01:27:04 0° 304° (NW) 2,991 11.1 -9.1°
Reaches altitude 10° 01:30:31 10° 330° (NNW) 2,074 9.9 -9.8°
Maximum altitude 01:33:04 14° 2° (N) 1,802 9.2 -10.3°
Drops below altitude 10° 01:35:37 10° 35° (NE) 2,065 9.3 -10.8°
Enters shadow 01:35:50 - 37° (NE) 2,106 9.3 -10.8°
Sets 01:39:03 0° 60° (ENE) 2,968 - -11.5°
